St. Kitts, Saint Kitts and Nevis

4:52 AM AST on July 22, 2017 (GMT -0400)
St. Kitts

Weather History for TKPK - May, 2013

Change the Weather History Date:

Wednesday, May 1, 2013

  Actual Average Record
Temperature  
Mean Temperature 78 °F -  
Max Temperature 81 °F 84 °F 89 °F (2016)
Min Temperature 75 °F 76 °F 71 °F (2006)
Cooling Degree Days 13    
Growing Degree Days 28 (Base 50)    
Moisture  
Dew Point 75 °F    
Average Humidity 91    
Maximum Humidity 100    
Minimum Humidity 82    
Precipitation  
Precipitation 0.08 in - - ()
Sea Level Pressure  
Sea Level Pressure 29.98 in    
Wind  
Wind Speed 10 mph ()    
Max Wind Speed 15 mph    
Max Gust Speed -    
Visibility 8.4 miles    
Events Rain    
Averages and records for this station are not official NWS values.
T = Trace of Precipitation, MM = Missing Value Source: Averaged Metar Reports

Daily Weather History Graph

Daily Weather History Graph

Search for Another Location

Airport or City:

Trip Planner

Search our weather history database for the weather conditions in past years. The results will help you decide how hot, cold, wet, or windy it might be!

Date:

Astronomy

May. 01, 2013 Rise Set
Actual Time 5:44 AM AST 6:30 PM AST
Civil Twilight 5:22 AM AST 6:53 PM AST
Nautical Twilight 4:55 AM AST 7:20 PM AST
Astronomical Twilight 4:28 AM AST 7:47 PM AST
Moon No Moon Rise 11:18 AM AST (5/1)
Length of Visible Light 13h 31m
Length of Day
12h 46m
Waning Gibbous, 59% of the Moon is Illuminated
May 1
Waning Gibbous
May 2
Last Quarter
May 9
New
May 18
First Quarter
May 25
Full

Hourly Weather History & Observations

Time (AST) Temp. Heat Index Dew Point Humidity Pressure Visibility Wind Dir Wind Speed Gust Speed Precip Events Conditions
6:00 AM 75.2 °F - 73.4 °F 94% 29.95 in 6.2 mi ENE 8.1 mph - N/A   Mostly Cloudy
7:00 AM 75.2 °F - 73.4 °F 94% 29.98 in 6.2 mi NE 6.9 mph - N/A   Mostly Cloudy
8:00 AM 75 °F - 75 °F 99% 30.01 in 14 mi ENE 15.0 mph - - Rain Light Rain Showers
8:00 AM 75.2 °F - 75.2 °F 100% 30.01 in 6.2 mi ENE 15.0 mph - N/A Rain Light Rain Showers
9:00 AM 77.0 °F - 75.2 °F 94% 30.01 in 6.2 mi NE 13.8 mph - N/A   Mostly Cloudy
10:00 AM 77.0 °F - 75.2 °F 94% 30.01 in 6.2 mi NE 9.2 mph - N/A Rain Light Rain
11:00 AM 78 °F - 76 °F 92% 30.02 in 10 mi NE 11.5 mph - - Rain Light Rain
11:00 AM 77.0 °F - 77.0 °F 100% 30.01 in 6.2 mi NE 11.5 mph - N/A Rain Light Rain
12:00 PM 78.8 °F - 77.0 °F 94% 30.01 in 6.2 mi NE 12.7 mph - N/A Rain Light Rain Showers
1:00 PM 78.8 °F - 75.2 °F 89% 29.98 in 6.2 mi NE 11.5 mph - N/A   Mostly Cloudy
2:00 PM 80 °F - 76 °F 82% 29.98 in 18 mi NE 11.5 mph - -   Partly Cloudy
2:00 PM 80.6 °F 86.2 °F 75.2 °F 84% 29.98 in 6.2 mi NE 11.5 mph - N/A   Mostly Cloudy
3:00 PM 78.8 °F - 75.2 °F 89% 29.95 in 6.2 mi NNE 10.4 mph - N/A   Scattered Clouds
4:00 PM 78.8 °F - 75.2 °F 89% 29.95 in 6.2 mi NE 13.8 mph - N/A   Mostly Cloudy
5:00 PM 78 °F - 74 °F 86% 29.94 in 19 mi NNE 12.7 mph - -   Mostly Cloudy
5:00 PM 78.8 °F - 75.2 °F 89% 29.92 in 6.2 mi NNE 12.7 mph - N/A   Mostly Cloudy
6:00 PM 77.0 °F - 75.2 °F 94% 29.95 in 6.2 mi NNE 6.9 mph - N/A   Mostly Cloudy
7:00 PM 78.8 °F - 75.2 °F 89% 29.95 in 6.2 mi ENE 10.4 mph - N/A   Mostly Cloudy
8:00 PM 78 °F - 74 °F 86% 29.96 in 17 mi ENE 9.2 mph - -   Mostly Cloudy
8:00 PM 77.0 °F - 75.2 °F 94% 29.95 in 6.2 mi ENE 9.2 mph - N/A   Mostly Cloudy
9:00 PM 78.8 °F - 75.2 °F 89% 29.98 in 6.2 mi ENE 13.8 mph - N/A   Mostly Cloudy